Time,TemperatureF,DewpointF,PressureIn,WindDirection,WindDirectionDegrees,WindSpeedMPH,WindSpeedGustMPH,Humidity,HourlyPrecipIn,Conditions,Clouds,dailyrainin,SoftwareType,DateUTC
2013-02-16 00:02:00,19.0,16.0,30.33,West,277,0.0,0.0,88,0.00,,,0.00,,2013-02-16 06:02:00,
2013-02-16 00:11:00,19.0,16.0,30.33,West,277,0.0,0.0,88,0.00,,,0.00,,2013-02-16 06:11:00,
2013-02-16 00:21:00,18.0,15.0,30.33,West,277,0.0,0.0,89,0.00,,,0.00,,2013-02-16 06:21:00,
2013-02-16 00:32:00,18.0,15.0,30.32,West,277,0.0,0.0,88,0.00,,,0.00,,2013-02-16 06:32:00,
2013-02-16 00:51:00,18.0,16.0,30.32,West,277,0.0,0.0,90,0.00,,,0.00,,2013-02-16 06:51:00,
2013-02-16 01:02:00,18.0,16.0,30.32,West,277,0.0,0.0,90,0.00,,,0.00,,2013-02-16 07:02:00,
2013-02-16 01:11:00,18.0,16.0,30.32,West,277,0.0,0.0,90,0.00,,,0.00,,2013-02-16 07:11:00,
2013-02-16 01:21:00,18.0,16.0,30.32,West,277,0.0,0.0,90,0.00,,,0.00,,2013-02-16 07:21:00,
2013-02-16 01:31:00,18.0,16.0,30.33,West,277,0.0,0.0,91,0.00,,,0.00,,2013-02-16 07:31:00,
2013-02-16 01:42:00,18.0,16.0,30.33,West,277,0.0,0.0,91,0.00,,,0.00,,2013-02-16 07:42:00,
2013-02-16 01:53:00,19.0,17.0,30.34,West,277,0.0,0.0,92,0.00,,,0.00,,2013-02-16 07:53:00,
2013-02-16 02:01:00,22.0,20.0,30.35,West,277,0.0,1.0,90,0.00,,,0.00,,2013-02-16 08:01:00,
2013-02-16 02:11:00,22.0,20.0,30.35,West,277,0.0,1.0,90,0.00,,,0.00,,2013-02-16 08:11:00,
2013-02-16 02:21:00,23.0,20.0,30.35,West,277,0.0,1.0,87,0.00,,,0.00,,2013-02-16 08:21:00,
2013-02-16 02:31:00,23.0,20.0,30.34,West,277,0.0,0.0,87,0.00,,,0.00,,2013-02-16 08:31:00,
2013-02-16 02:42:00,23.0,20.0,30.34,West,277,0.0,0.0,87,0.00,,,0.00,,2013-02-16 08:42:00,
2013-02-16 02:52:00,24.0,21.0,30.34,West,277,0.0,2.0,89,0.00,,,0.00,,2013-02-16 08:52:00,
2013-02-16 03:01:00,27.0,24.0,30.34,West,271,0.0,5.0,88,0.00,,,0.00,,2013-02-16 09:01:00,
2013-02-16 03:11:00,27.0,24.0,30.34,West,271,0.0,5.0,88,0.00,,,0.00,,2013-02-16 09:11:00,
2013-02-16 03:21:00,29.0,26.0,30.34,WNW,292,3.0,8.0,87,0.00,,,0.00,,2013-02-16 09:21:00,
2013-02-16 03:31:00,29.0,26.0,30.34,West,269,2.0,8.0,88,0.00,,,0.00,,2013-02-16 09:31:00,
2013-02-16 03:42:00,29.0,26.0,30.34,West,269,2.0,8.0,88,0.00,,,0.00,,2013-02-16 09:42:00,
2013-02-16 03:51:00,29.0,26.0,30.33,WNW,285,3.0,9.0,88,0.00,,,0.00,,2013-02-16 09:51:00,
2013-02-16 04:01:00,29.0,25.0,30.33,West,261,1.0,6.0,86,0.00,,,0.00,,2013-02-16 10:01:00,
2013-02-16 04:11:00,29.0,25.0,30.33,West,261,1.0,6.0,86,0.00,,,0.00,,2013-02-16 10:11:00,
2013-02-16 04:21:00,29.0,25.0,30.32,WNW,290,2.0,9.0,85,0.00,,,0.00,,2013-02-16 10:21:00,
2013-02-16 04:31:00,28.0,24.0,30.32,West,275,1.0,6.0,85,0.00,,,0.00,,2013-02-16 10:31:00,
2013-02-16 04:42:00,28.0,24.0,30.32,West,275,1.0,6.0,85,0.00,,,0.00,,2013-02-16 10:42:00,
2013-02-16 04:51:00,28.0,25.0,30.33,West,281,0.0,3.0,87,0.00,,,0.00,,2013-02-16 10:51:00,
2013-02-16 05:02:00,28.0,25.0,30.33,West,277,2.0,5.0,87,0.00,,,0.00,,2013-02-16 11:02:00,
2013-02-16 05:11:00,28.0,25.0,30.33,West,277,2.0,5.0,87,0.00,,,0.00,,2013-02-16 11:11:00,
2013-02-16 05:22:00,27.0,24.0,30.33,West,275,1.0,5.0,88,0.00,,,0.00,,2013-02-16 11:22:00,
2013-02-16 05:32:00,27.0,24.0,30.34,West,271,0.0,5.0,88,0.00,,,0.00,,2013-02-16 11:32:00,
2013-02-16 05:42:00,27.0,24.0,30.34,West,271,0.0,5.0,88,0.00,,,0.00,,2013-02-16 11:42:00,
2013-02-16 05:52:00,26.0,23.0,30.34,WNW,285,0.0,3.0,87,0.00,,,0.00,,2013-02-16 11:52:00,
2013-02-16 06:01:00,26.0,23.0,30.34,WNW,295,0.0,3.0,87,0.00,,,0.00,,2013-02-16 12:01:00,
2013-02-16 06:12:00,26.0,23.0,30.34,WNW,295,0.0,3.0,87,0.00,,,0.00,,2013-02-16 12:12:00,
2013-02-16 06:22:00,26.0,23.0,30.34,WNW,295,1.0,6.0,88,0.00,,,0.00,,2013-02-16 12:22:00,
2013-02-16 06:32:00,26.0,23.0,30.35,West,261,1.0,6.0,87,0.00,,,0.00,,2013-02-16 12:32:00,
2013-02-16 06:42:00,26.0,23.0,30.35,West,261,1.0,6.0,87,0.00,,,0.00,,2013-02-16 12:42:00,
2013-02-16 06:52:00,26.0,22.0,30.35,West,276,0.0,6.0,86,0.00,,,0.00,,2013-02-16 12:52:00,
2013-02-16 07:02:00,26.0,22.0,30.35,West,279,2.0,7.0,84,0.00,,,0.00,,2013-02-16 13:02:00,
2013-02-16 07:11:00,26.0,22.0,30.35,West,279,2.0,7.0,84,0.00,,,0.00,,2013-02-16 13:11:00,
2013-02-16 07:21:00,26.0,22.0,30.35,West,259,2.0,5.0,84,0.00,,,0.00,,2013-02-16 13:21:00,
2013-02-16 07:31:00,25.0,21.0,30.36,SW,234,0.0,4.0,84,0.00,,,0.00,,2013-02-16 13:31:00,
2013-02-16 07:41:00,25.0,21.0,30.36,SW,234,0.0,4.0,84,0.00,,,0.00,,2013-02-16 13:41:00,
2013-02-16 07:51:00,25.0,21.0,30.36,West,272,1.0,6.0,84,0.00,,,0.00,,2013-02-16 13:51:00,
2013-02-16 08:01:00,25.0,21.0,30.37,WSW,254,1.0,5.0,85,0.00,,,0.00,,2013-02-16 14:01:00,
2013-02-16 08:11:00,25.0,21.0,30.37,WSW,254,1.0,5.0,85,0.00,,,0.00,,2013-02-16 14:11:00,
2013-02-16 08:21:00,25.0,21.0,30.37,West,269,1.0,8.0,85,0.00,,,0.00,,2013-02-16 14:21:00,
2013-02-16 08:32:00,26.0,22.0,30.37,West,259,1.0,5.0,85,0.00,,,0.00,,2013-02-16 14:32:00,
2013-02-16 08:41:00,26.0,22.0,30.37,West,259,1.0,5.0,85,0.00,,,0.00,,2013-02-16 14:41:00,
2013-02-16 08:52:00,26.0,22.0,30.39,West,270,0.0,5.0,83,0.00,,,0.00,,2013-02-16 14:52:00,
2013-02-16 09:01:00,26.0,22.0,30.39,WSW,257,1.0,6.0,84,0.00,,,0.00,,2013-02-16 15:01:00,
2013-02-16 09:11:00,26.0,22.0,30.39,WSW,257,1.0,6.0,84,0.00,,,0.00,,2013-02-16 15:11:00,
2013-02-16 09:21:00,27.0,23.0,30.40,WNW,300,0.0,2.0,83,0.00,,,0.00,,2013-02-16 15:21:00,
2013-02-16 09:32:00,27.0,22.0,30.39,NW,321,0.0,5.0,82,0.00,,,0.00,,2013-02-16 15:32:00,
2013-02-16 09:42:00,27.0,22.0,30.39,NW,321,0.0,5.0,82,0.00,,,0.00,,2013-02-16 15:42:00,
2013-02-16 09:51:00,27.0,22.0,30.39,NNW,329,0.0,5.0,80,0.00,,,0.00,,2013-02-16 15:51:00,
2013-02-16 10:01:00,28.0,23.0,30.39,NNW,336,0.0,4.0,80,0.00,,,0.00,,2013-02-16 16:01:00,
2013-02-16 10:11:00,28.0,23.0,30.39,NNW,336,0.0,4.0,80,0.00,,,0.00,,2013-02-16 16:11:00,
2013-02-16 10:21:00,28.0,22.0,30.40,West,263,0.0,6.0,78,0.00,,,0.00,,2013-02-16 16:21:00,
2013-02-16 10:32:00,30.0,24.0,30.40,WSW,244,0.0,5.0,77,0.00,,,0.00,,2013-02-16 16:32:00,
2013-02-16 10:41:00,30.0,24.0,30.40,WSW,244,0.0,5.0,77,0.00,,,0.00,,2013-02-16 16:41:00,
2013-02-16 10:51:00,30.0,23.0,30.40,West,270,1.0,5.0,75,0.00,,,0.00,,2013-02-16 16:51:00,
2013-02-16 11:01:00,32.0,23.0,30.40,West,266,1.0,5.0,69,0.00,,,0.00,,2013-02-16 17:01:00,
2013-02-16 11:11:00,32.0,23.0,30.40,West,266,1.0,5.0,69,0.00,,,0.00,,2013-02-16 17:11:00,
2013-02-16 11:22:00,33.0,23.0,30.40,West,259,3.0,6.0,65,0.00,,,0.00,,2013-02-16 17:22:00,
2013-02-16 11:32:00,33.0,23.0,30.40,West,259,3.0,6.0,65,0.00,,,0.00,,2013-02-16 17:32:00,
2013-02-16 11:42:00,33.0,23.0,30.40,West,259,3.0,6.0,65,0.00,,,0.00,,2013-02-16 17:42:00,
2013-02-16 11:52:00,32.0,23.0,30.39,West,266,1.0,6.0,68,0.00,,,0.00,,2013-02-16 17:52:00,
2013-02-16 12:02:00,33.0,22.0,30.38,WSW,250,0.0,8.0,64,0.00,,,0.00,,2013-02-16 18:02:00,
2013-02-16 12:11:00,33.0,22.0,30.38,WSW,250,0.0,8.0,64,0.00,,,0.00,,2013-02-16 18:11:00,
2013-02-16 12:21:00,33.0,22.0,30.38,WSW,250,0.0,8.0,64,0.00,,,0.00,,2013-02-16 18:21:00,
2013-02-16 12:33:00,34.0,22.0,30.37,SW,223,1.0,5.0,61,0.00,,,0.00,,2013-02-16 18:33:00,
2013-02-16 12:42:00,34.0,22.0,30.37,SW,223,1.0,5.0,61,0.00,,,0.00,,2013-02-16 18:42:00,
2013-02-16 12:52:00,33.0,22.0,30.36,West,270,2.0,7.0,63,0.00,,,0.00,,2013-02-16 18:52:00,
2013-02-16 13:02:00,33.0,20.0,30.36,West,268,4.0,7.0,59,0.00,,,0.00,,2013-02-16 19:02:00,
2013-02-16 13:11:00,33.0,20.0,30.36,West,268,4.0,7.0,59,0.00,,,0.00,,2013-02-16 19:11:00,
2013-02-16 13:21:00,35.0,20.0,30.35,West,263,3.0,7.0,55,0.00,,,0.00,,2013-02-16 19:21:00,
2013-02-16 13:31:00,36.0,21.0,30.34,West,277,2.0,9.0,54,0.00,,,0.00,,2013-02-16 19:31:00,
2013-02-16 13:42:00,36.0,21.0,30.34,West,277,2.0,9.0,54,0.00,,,0.00,,2013-02-16 19:42:00,
2013-02-16 13:52:00,37.0,21.0,30.33,South,174,0.0,6.0,52,0.00,,,0.00,,2013-02-16 19:52:00,
2013-02-16 14:01:00,38.0,21.0,30.32,WNW,288,3.0,7.0,49,0.00,,,0.00,,2013-02-16 20:01:00,
2013-02-16 14:11:00,38.0,21.0,30.32,WNW,288,3.0,7.0,49,0.00,,,0.00,,2013-02-16 20:11:00,
2013-02-16 14:21:00,38.0,20.0,30.32,West,277,3.0,6.0,48,0.00,,,0.00,,2013-02-16 20:21:00,
2013-02-16 14:32:00,38.0,20.0,30.31,West,266,4.0,6.0,48,0.00,,,0.00,,2013-02-16 20:32:00,
2013-02-16 14:42:00,38.0,20.0,30.31,West,266,4.0,6.0,48,0.00,,,0.00,,2013-02-16 20:42:00,
2013-02-16 14:52:00,38.0,20.0,30.30,WNW,283,3.0,8.0,48,0.00,,,0.00,,2013-02-16 20:52:00,
2013-02-16 15:02:00,39.0,19.0,30.28,West,268,1.0,5.0,45,0.00,,,0.00,,2013-02-16 21:02:00,
2013-02-16 15:11:00,39.0,19.0,30.28,West,268,1.0,5.0,45,0.00,,,0.00,,2013-02-16 21:11:00,
2013-02-16 15:21:00,40.0,21.0,30.27,SE,130,1.0,6.0,46,0.00,,,0.00,,2013-02-16 21:21:00,
2013-02-16 15:32:00,39.0,19.0,30.27,West,277,0.0,4.0,45,0.00,,,0.00,,2013-02-16 21:32:00,
2013-02-16 15:41:00,39.0,19.0,30.27,West,277,0.0,4.0,45,0.00,,,0.00,,2013-02-16 21:41:00,
2013-02-16 15:52:00,37.0,18.0,30.27,WSW,245,2.0,10.0,45,0.00,,,0.00,,2013-02-16 21:52:00,
2013-02-16 16:01:00,37.0,18.0,30.27,WNW,289,2.0,5.0,46,0.00,,,0.00,,2013-02-16 22:01:00,
2013-02-16 16:11:00,37.0,18.0,30.27,WNW,289,2.0,5.0,46,0.00,,,0.00,,2013-02-16 22:11:00,
2013-02-16 16:21:00,37.0,18.0,30.27,NNW,333,0.0,4.0,45,0.00,,,0.00,,2013-02-16 22:21:00,
2013-02-16 16:32:00,37.0,19.0,30.27,West,273,0.0,4.0,47,0.00,,,0.00,,2013-02-16 22:32:00,
2013-02-16 16:42:00,37.0,19.0,30.27,West,273,0.0,4.0,47,0.00,,,0.00,,2013-02-16 22:42:00,
2013-02-16 16:51:00,37.0,20.0,30.26,SW,236,0.0,4.0,50,0.00,,,0.00,,2013-02-16 22:51:00,
2013-02-16 17:02:00,37.0,19.0,30.25,ESE,123,0.0,4.0,47,0.00,,,0.00,,2013-02-16 23:02:00,
2013-02-16 17:11:00,37.0,19.0,30.25,ESE,123,0.0,4.0,47,0.00,,,0.00,,2013-02-16 23:11:00,
2013-02-16 17:21:00,37.0,19.0,30.24,South,178,0.0,4.0,48,0.00,,,0.00,,2013-02-16 23:21:00,
2013-02-16 17:31:00,37.0,19.0,30.24,South,173,0.0,1.0,48,0.00,,,0.00,,2013-02-16 23:31:00,
2013-02-16 17:42:00,37.0,19.0,30.24,South,173,0.0,1.0,48,0.00,,,0.00,,2013-02-16 23:42:00,
2013-02-16 17:52:00,37.0,19.0,30.24,West,273,0.0,2.0,48,0.00,,,0.00,,2013-02-16 23:52:00,
2013-02-16 18:02:00,37.0,20.0,30.24,SE,144,0.0,3.0,49,0.00,,,0.00,,2013-02-17 00:02:00,
2013-02-16 18:12:00,37.0,20.0,30.24,SE,144,0.0,3.0,49,0.00,,,0.00,,2013-02-17 00:12:00,
2013-02-16 18:22:00,37.0,19.0,30.24,WNW,298,1.0,4.0,47,0.00,,,0.00,,2013-02-17 00:22:00,
2013-02-16 18:32:00,37.0,19.0,30.24,WNW,298,1.0,4.0,47,0.00,,,0.00,,2013-02-17 00:32:00,
2013-02-16 18:41:00,37.0,19.0,30.24,WNW,298,1.0,4.0,47,0.00,,,0.00,,2013-02-17 00:41:00,
2013-02-16 18:51:00,35.0,20.0,30.24,West,265,0.0,0.0,53,0.00,,,0.00,,2013-02-17 00:51:00,
2013-02-16 19:01:00,32.0,21.0,30.24,West,265,0.0,1.0,63,0.00,,,0.00,,2013-02-17 01:01:00,
2013-02-16 19:11:00,32.0,21.0,30.24,West,265,0.0,1.0,63,0.00,,,0.00,,2013-02-17 01:11:00,
2013-02-16 19:21:00,32.0,21.0,30.24,West,265,0.0,1.0,63,0.00,,,0.00,,2013-02-17 01:21:00,
2013-02-16 19:31:00,29.0,22.0,30.24,NNW,343,0.0,0.0,74,0.00,,,0.00,,2013-02-17 01:31:00,
2013-02-16 19:41:00,29.0,22.0,30.24,NNW,343,0.0,0.0,74,0.00,,,0.00,,2013-02-17 01:41:00,
2013-02-16 19:52:00,29.0,23.0,30.24,NNW,343,0.0,0.0,77,0.00,,,0.00,,2013-02-17 01:52:00,
2013-02-16 20:01:00,30.0,24.0,30.24,NNW,343,0.0,0.0,78,0.00,,,0.00,,2013-02-17 02:01:00,
2013-02-16 20:11:00,30.0,24.0,30.24,NNW,343,0.0,0.0,78,0.00,,,0.00,,2013-02-17 02:11:00,
2013-02-16 20:21:00,30.0,24.0,30.23,NNW,343,0.0,0.0,79,0.00,,,0.00,,2013-02-17 02:21:00,
2013-02-16 20:31:00,31.0,25.0,30.23,NNW,343,0.0,0.0,77,0.00,,,0.00,,2013-02-17 02:31:00,
2013-02-16 20:41:00,31.0,25.0,30.23,NNW,343,0.0,0.0,77,0.00,,,0.00,,2013-02-17 02:41:00,
2013-02-16 20:52:00,31.0,25.0,30.22,NNW,343,0.0,0.0,77,0.00,,,0.00,,2013-02-17 02:52:00,
2013-02-16 21:02:00,31.0,23.0,30.22,NNW,343,0.0,0.0,73,0.00,,,0.00,,2013-02-17 03:02:00,
2013-02-16 21:11:00,31.0,23.0,30.22,NNW,343,0.0,0.0,73,0.00,,,0.00,,2013-02-17 03:11:00,
2013-02-16 21:21:00,32.0,22.0,30.22,ENE,63,0.0,2.0,65,0.00,,,0.00,,2013-02-17 03:21:00,
2013-02-16 21:31:00,33.0,21.0,30.22,NE,50,0.0,2.0,60,0.00,,,0.00,,2013-02-17 03:31:00,
2013-02-16 21:42:00,33.0,21.0,30.22,NE,50,0.0,2.0,60,0.00,,,0.00,,2013-02-17 03:42:00,
2013-02-16 21:51:00,34.0,21.0,30.22,ENE,57,0.0,4.0,58,0.00,,,0.00,,2013-02-17 03:51:00,
2013-02-16 22:01:00,34.0,21.0,30.22,ENE,74,0.0,2.0,58,0.00,,,0.00,,2013-02-17 04:01:00,
2013-02-16 22:11:00,34.0,21.0,30.22,ENE,74,0.0,2.0,58,0.00,,,0.00,,2013-02-17 04:11:00,
2013-02-16 22:21:00,34.0,20.0,30.21,ENE,62,0.0,2.0,56,0.00,,,0.00,,2013-02-17 04:21:00,
2013-02-16 22:31:00,34.0,20.0,30.21,ENE,63,0.0,2.0,56,0.00,,,0.00,,2013-02-17 04:31:00,
2013-02-16 22:41:00,34.0,20.0,30.21,ENE,63,0.0,2.0,56,0.00,,,0.00,,2013-02-17 04:41:00,
2013-02-16 22:51:00,34.0,21.0,30.20,ENE,66,0.0,2.0,58,0.00,,,0.00,,2013-02-17 04:51:00,
2013-02-16 23:02:00,33.0,19.0,30.19,ENE,66,0.0,1.0,57,0.00,,,0.00,,2013-02-17 05:02:00,
2013-02-16 23:12:00,33.0,19.0,30.19,ENE,66,0.0,1.0,57,0.00,,,0.00,,2013-02-17 05:12:00,
2013-02-16 23:22:00,32.0,21.0,30.19,ENE,66,0.0,1.0,63,0.00,,,0.00,,2013-02-17 05:22:00,
2013-02-16 23:33:00,30.0,21.0,30.19,ENE,66,0.0,1.0,69,0.00,,,0.00,,2013-02-17 05:33:00,
2013-02-16 23:42:00,30.0,21.0,30.19,ENE,66,0.0,1.0,69,0.00,,,0.00,,2013-02-17 05:42:00,
2013-02-16 23:52:00,28.0,20.0,30.19,ENE,66,0.0,0.0,72,0.00,,,0.00,,2013-02-17 05:52:00,